www.pogodaiklimat.ru

Погода и климат >> Архив погоды >> Россия >> Якутия >> Джалинда


АРХИВ ПОГОДЫ в Джалинде

Время (UTC), дата Ветер
(напр.,м/с)
 
Видим.   Явления Облачность Т
(С)
Тd
(С)
f
(%)
Тe
(С)
Тes
(С)
Комфортность P
(гПа)
Po
(гПа)
Тmin
(С)
Tmax
(С)
R
(мм)
R24
(мм)
S
(см)
18 14.05 СВ 5 50 км 10/10 600 м
[Sc]
-10.6 -11.9 90 -19 -19 1022.7 1014.6
21 14.05 СВ 5 50 км 10/10 600 м
[Sc]
-10.1 -11.4 90 -18 -18 1023.6 1015.4
00 15.05 СВ 5 50 км 9/9 600 м
[Sc]
-9.0 -11.5 82 -17 -17 1023.7 1015.5 -10.6 26
03 15.05 СВ 8 50 км 8/8 600 м
[Sc]
-6.0 -10.4 71 -15 -15 1022.7 1014.7
06 15.05 СВ 8 50 км 8/8 600 м
[Sc]
-4.5 -9.2 70 -13 -13 1023.1 1015.1
09 15.05 С 7 50 км 8/8 600 м
[Sc]
-4.1 -10.0 63 -12 -12 1022.7 1014.7
12 15.05 С 5 50 км 10/10 600 м
[Sc]
-7.0 -9.9 80 -14 -14 1023.4 1015.2 -4.0
15 15.05 С 5 50 км 10/0
[As op]
-7.7 -9.9 84 -15 -15 1023.8 1015.6
18 15.05 С 3 н/о -9.1 -10.7 88 -15 -15 1024.1 1015.9
21 15.05 С 3 20 км 10/0
[As op]
-8.3 -9.3 92 -14 -14 1023.1 1015.0
00 16.05 С 3 20 км слаб. снег 10/0
[As op]
-7.5 -9.7 84 -13 -12 1023.8 1015.6 -9.1 0.0 26
03 16.05 В 3 50 км {снег} 10/10 600 м
[Sc]
-6.3 -9.9 76 -12 -12 1023.5 1015.5
06 16.05 СВ 5 50 км {снег} 9/9 600 м
[Sc]
-5.0 -9.0 73 -12 -12 1023.5 1015.5
09 16.05 СВ 5 50 км 9/9 600 м
[Sc]
-4.5 -8.8 72 -11 -11 1025.2 1017.2
12 16.05 СЗ 5 50 км 9/8 600 м
[Sc]
-6.5 -10.1 76 -14 -14 1025.6 1017.4 -0.4 0.0
15 16.05 СЗ 5 20 км слаб. снег 10/0
[As op]
-8.5 -10.9 83 -16 -16 1026.6 1018.4
18 16.05 СЗ 5 20 км слаб. снег 10/0
[As op]
-9.8 -11.5 87 -18 -18 1027.0 1018.8
21 16.05 С 3 20 км слаб. снег 10/0
[As op]
-9.7 -11.4 87 -16 -15 1026.6 1018.4
00 17.05 С 1 50 км в посл. час снег 10/0
[As op]
-8.6 -10.5 86 -11 -10 1027.3 1019.1 -9.8 0.2 26
03 17.05 С 5 50 км 10/10 600 м
[Sc]
-6.6 -9.8 78 -14 -14 1027.4 1019.2
06 17.05 СВ 5 50 км 8/8 600 м
[Sc]
-4.6 -9.4 69 -11 -11 1027.0 1019.0
09 17.05 СВ 5 50 км 3/3 600 м
[Sc]
-4.5 -9.7 67 -11 -10 1027.0 1019.0
12 17.05 СВ 5 50 км 8/8 600 м
[Sc]
-6.0 -9.9 74 -13 -13 1029.8 1021.8 -4.3
15 17.05 СВ 5 50 км 10/10 600 м
[Sc]
-9.5 -12.1 81 -17 -17 1028.8 1020.6
18 17.05 СВ 5 50 км 10/10 600 м
[Sc]
-9.6 -11.2 88 -17 -17 1029.6 1021.4
21 17.05 СВ 5 50 км 10/10 600 м
[Sc]
-12.0 -13.3 90 -20 -20 1031.2 1022.8
00 18.05 СВ 5 50 км 9/9 600 м
[Sc]
-8.5 -10.9 83 -16 -16 1031.2 1023.0 -12.0 26
03 18.05 СВ 3 50 км 4/0
[Ci sp]
-6.0 -9.9 74 -11 -5 1030.3 1022.3
06 18.05 СВ 3 50 км 3/0
[Ci sp]
-4.1 -10.0 63 -9 -2 1029.6 1021.6
09 18.05 СВ 3 50 км 1/0
[Ci sp]
+1.8 -4.3 64 -2 +2 1028.9 1021.0
12 18.05 СВ 3 50 км 3/0
[Ci sp]
-4.4 -10.4 63 -9 -9 1028.8 1020.8 +2.0
15 18.05 СВ 1 50 км 4/0
[Ci sp]
-8.0 -11.6 75 -10 -10 1028.9 1020.7
18 18.05 штиль 0 50 км 4/0
[Ci sp]
-11.6 -12.9 90 -12 -12 1028.6 1020.2
00 19.05 штиль 0 50 км 9/9 600 м
[Sc]
-9.0 -11.0 85 -10 -9 1018.2 1018.0 -11.6 26
03 19.05 штиль 0 50 км 4/0
[Ci sp]
-6.8 -10.5 75 -7 +4 1025.2 1017.0
06 19.05 штиль 0 50 км 4/0
[Ci sp]
-3.5 -9.6 63 -4 +7 1023.0 1015.0
09 19.05 штиль 0 50 км 3/0
[Ci sp]
-0.5 -8.8 53 -1 +5 1021.9 1014.1
12 19.05 штиль 0 50 км 3/0
[Ci sp]
-0.2 -8.8 52 -1 +1 1020.0 1012.2 -0.2
15 19.05 штиль 0 50 км 3/0
[Ci sp]
-4.5 -11.0 60 -5 -5 1018.7 1010.7
18 19.05 штиль 0 50 км 3/0
[Ci sp]
-7.9 -12.5 69 -8 -8 1018.2 1010.1
21 19.05 штиль 0 50 км 8/0
[Cs]
-10.2 -13.0 80 -11 -9 1017.5 1009.4
00 20.05 штиль 0 50 км 9/0
[Cs]
-8.0 -12.1 72 -9 -3 1016.7 1008.6 -10.2 25
03 20.05 штиль 0 50 км 9/0
[Cs]
-2.7 -9.3 60 -3 +7 1015.9 1007.9
06 20.05 штиль 0 50 км 8/0
[Cs]
+0.2 -8.2 53 -0 +10 1014.3 1006.5
09 20.05 штиль 0 50 км 4/0
[Ci fib]
+1.4 -7.7 51 +1 +7 1013.2 1005.4
12 20.05 штиль 0 50 км 3/0
[Ci fib]
+1.4 -7.7 51 +1 +2 1012.8 1005.0 +1.6
15 20.05 СВ 1 50 км ясно -2.8 -9.4 60 -5 -5 1012.4 1004.5
18 20.05 штиль 0 50 км ясно -7.3 -12.1 68 -8 -8 1012.3 1004.3
21 20.05 штиль 0 50 км ясно -6.9 -13.1 61 -7 -6 1012.9 1004.9
00 21.05 штиль 0 50 км ясно -2.0 -9.1 58 -3 +4 1011.4 1003.5 -7.3 25
03 21.05 ЮВ 3 50 км 4/0
[Ci sp]
+5.0 -5.6 46 +2 +9 1008.7 1001.1
06 21.05 ЮВ 3 50 км 4/0
[Ci sp]
+7.0 -5.7 40 +5 +11 1007.4 999.8
09 21.05 ЮВ 1 50 км 10/0
[As op]
+9.0 -3.6 41 +9 +10 1005.2 997.7
12 21.05 ЮВ 1 50 км 10/4 600 м
[Sc As op]
+8.8 -1.0 50 +9 +9 1004.2 996.7 +9.2
15 21.05 В 1 50 км {дождь} 10/10 600 м
[Sc]
+5.9 +2.8 80 +5 +5 1003.1 995.5

 

Местоположение метеостанции Джалинда (Якутия, Россия): широта 70.13 долгота 113.90 высота над уровнем моря 62 м.

В архиве по умолчанию представлена погода в Джалинде за последнюю неделю. Архивные данные за месяц целиком и за предыдущие месяцы, начиная с января 2011 года, Вы можете получить, выбрав интересующий диапазон дат из раскрывающегося списка и нажав кнопку "Ввод!".


*Определитесь, кто Вы:
робот инопланетянин человек

Внимание! Время в таблицах - всемирное. Для получения местного времени необходимо прибавить поправку, которая равна 9 ч.

Смотрите также архив погоды в соседних городах и на ближайших метеорологических станциях:

Погода в Оленеке (Якутия, Россия) (191 км)
Погода в Саскылахе (Якутия, Россия) (205 км)
Погода в Сухане (Якутия, Россия) (241 км)
Погода в Анабаре (Якутия, Россия) (344 км)
Погода на Усть-Оленеке (Якутия, Россия) (380 км)
Погода в Полярном (Якутия, Россия) (383 км)
Погода в Ярольине (Якутия, Россия) (399 км)
Погода в Тюмяти (Якутия, Россия) (400 км)
Погода в Джарджане (Якутия, Россия) (424 км)
Погода в Шелагонцах (Якутия, Россия) (432 км)

Пояснения к столбцам:

Ветер - указаны скорость ветра в м/с - средняя за 10 мин, порывы в срок и между сроками (в фигурных скобках) и направление, откуда дует ветер: С - северный, СВ - северо-восточный, В - восточный, ЮВ - юго-восточный, Ю - южный, ЮЗ - юго-западный, З - западный, СЗ - северо-западный.
Видимость - горизонтальная дальность видимости в метрах или километрах. При видимости от 1 до 10 км при отсутствии осадков обычно наблюдается дымка, при ухудшении видимости до 1 км и менее - туман. В сухую погоду видимость может ухудшаться дымом, пылью или мглою.
Явления - указаны атмосферные явления, наблюдавшиеся в срок или в последний час перед сроком; фигурными скобками обозначены явления, наблюдавшиеся между сроками (за 1-3 часа до срока); квадратными скобками обозначены град или гололедные отложения с указанием их диаметра в мм.
Облачность - указаны через наклонную черту общая и нижняя облачность в баллах и высота нижней границы облаков в метрах; квадратными скобками обозначены формы облаков: Ci - перистые, Cs - перисто-слоистые, Cc - перисто-кучевые, Ac - высококучевые, As - высокослоистые, Sc - слоисто-кучевые, Ns - слоисто-дождевые, Cu - кучевые, Cb - кучево-дождевые. Подробнее классификацию облаков см. в Атласе облаков (PDF).
T - Температура воздуха - температура, измеренная на высоте 2 м над землей.
Td - Температура точки росы - температура, при понижении до которой содержащийся в воздухе водяной пар достигнет насыщения.
f - Относительная влажность воздуха - влажноcть воздуха, измеренная на высоте 2 м над землей.
Te - Эффективная температура - температура, которую ощущает одетый по сезону человек в тени. Характеристика душности погоды. При расчете учитывается влияние влажности воздуха и скорости ветра на теплоощущения человека.
Tes - Эффективная температура на солнце - температура, которую ощущает человек, с поправкой на солнечный нагрев. Характеристика знойности погоды. Зависит от высоты солнца над горизонтом, облачности и скорости ветра. Ночью, в пасмурную погоду, а также при ветре 12 м/с и более поправка равна нулю.
P - Атмосферное давление - приведенное к уровню моря атмосферное давление.
Po - Атмосферное давление - измеренное на уровне метеостанции атмосферное давление.
Tmin - Минимальная температура - минимум температуры воздуха на высоте 2 м над землей.
Tmax - Максимальная температура - максимум температуры воздуха на высоте 2 м над землей.
R - Количество осадков - Количество выпавших осадков за период времени, мм. При наведении курсора мыши на число - период времени, за который выпало указанное количество осадков.
R24 - Количество осадков - Количество выпавших осадков за 24 часа, мм.
S - Снежный покров - Высота снежного покрова, см. При наведении курсора мыши на число - состояние снежного покрова и степень покрытия местности в баллах.